Regional Weather Roundup
Issued by NWS Tiyan, Guam

Home | Current Version | Previous Version | Text Only | Print | Product List | Glossary On
Versions: 1 2 3 4 5 6 7 8 9 10 11 12 13 14 15 16 17 18 19 20 21 22 23 24 25 26
000
ASGM40 PGUM 190212
RWRGUM
WEATHER ROUNDUP FOR THE MARIANAS
NATIONAL WEATHER SERVICE TIYAN GU
1200 PM CHST MON FEB 19 2018

GUZ001>004-190300-
MARIANA ISLANDS-

CITY           SKY/WX    TMP DP  RH WIND       PRES   REMARKS
GUAM AIRPORT   PTSUNNY   88  72  58 NE15      29.96F HX  94
ANDERSEN AFB   MOSUNNY   84  72  65 E17       29.96F
ROTA AIRPORT   MOSUNNY   82  70  65 E15G21    29.96F
TINIAN AP      MOSUNNY   82  73  74 NE14      29.95F
SAIPAN AP      MOSUNNY   88  73  62 E16       29.96F HX  96

$$





USA.gov is the U.S. government's official web portal to all federal, state and local government web resources and services.